Regional Weather Roundup
Issued by NWS

Home | Current Version | Previous Version | Graphics & Text | Print | Product List | Glossary On
Versions: 1 2 3 4 5 6 7 8 9 10 11 12 13 14 15 16 17 18 19 20 21 22 23 24 25 26 27 28 29 30 31 32 33 34 35 36 37 38 39 40 41 42 43 44 45 46 47 48 49 50
648
ASUS45 KCYS 230010
RWRWY

WYOMING REGIONAL WEATHER ROUNDUP
NATIONAL WEATHER SERVICE CHEYENNE WY
500 PM MST WED FEB 22 2017

NOTE:  "FAIR" INDICATES FEW OR NO CLOUDS BELOW 12,000 FEET
WITH NO SIGNIFICANT WEATHER AND/OR OBSTRUCTIONS TO VISIBILITY.

WYZ001-230100-
YELLOWSTONE NATIONAL PARK

CITY           SKY/WX    TMP DP  RH WIND       PRES   REMARKS
LK YELLOWSTONE   N/A     24  12  60 VRB3      29.80S
6HR MIN TEMP:  22; 6HR MAX TEMP:  28; 6HR PCP:  0.01;

W YELLOWSTONE  NOT AVBL

$$
WYZ002>013-054>058-071-098>099-230100-
NORTHERN WYOMING

CITY           SKY/WX    TMP DP  RH WIND       PRES   REMARKS
JACKSON        FAIR      30  18  59 CALM      29.80F
CODY           FAIR      33  25  72 N8        29.83S WCI  26
GREYBULL       FAIR      42  26  53 NW8       29.80S
6HR MIN TEMP:  42; 6HR MAX TEMP:  46;

WORLAND        FAIR      41  24  51 N6        29.80S
6HR MIN TEMP:  41; 6HR MAX TEMP:  47;

SHERIDAN       LGT SNOW  35  30  82 S9        29.86S WCI  28
6HR MIN TEMP:  35; 6HR MAX TEMP:  45; 6HR PCP:  0.02;

BUFFALO        FLURRIES  32  29  88 N8        29.85S WCI  25
6HR MIN TEMP:  32; 6HR MAX TEMP:  44; 6HR PCP:  0.01;

GILLETTE       FAIR      38  29  70 NE13      29.83R WCI  30
HULETT         CLOUDY    36  30  80 N12       29.87R WCI  27
NEWCASTLE      FAIR      41  23  48 NW15      29.82R

$$
WYZ014>020-022>026-101>103-230100-
CENTRAL WYOMING

CITY           SKY/WX    TMP DP  RH WIND       PRES   REMARKS
BIG PINEY      MOCLDY    23  18  81 N8        29.81F WCI  14
6HR MIN TEMP:  23; 6HR MAX TEMP:  29;

PINEDALE       FAIR      27  18  69 NW3       29.80F
DUBOIS         FAIR      27  12  54 W9        29.76F WCI  17
LANDER         FAIR      38  18  44 SE7       29.75F WCI  33
6HR MIN TEMP:  38; 6HR MAX TEMP:  41;

RIVERTON       MOCLDY    39  16  39 SE6       29.77F WCI  35
6HR MIN TEMP:  39; 6HR MAX TEMP:  42;

CASPER         CLOUDY    39  22  50 S9        29.81R WCI  33
6HR MIN TEMP:  39; 6HR MAX TEMP:  42;

DOUGLAS        CLOUDY    43  20  39 W15       29.81S
6HR MIN TEMP:  43; 6HR MAX TEMP:  48;


$$
WYZ021-027>030-104>119-230100-
SOUTHERN WYOMING

CITY           SKY/WX    TMP DP  RH WIND       PRES   REMARKS
EVANSTON       SNOW      27  23  85 N7        29.76F VSB 1/2 WCI  19
6HR MIN TEMP:  26; 6HR MAX TEMP:  31; 6HR PCP:  0.03;

KEMMERER         N/A     28  21  74 N3        29.77F
FORT BRIDGER   LGT SNOW  29  29 100 E9        29.80F WCI  20
ROCK SPRINGS   CLOUDY    30  20  66 CALM      29.79F
6HR MIN TEMP:  28; 6HR MAX TEMP:  31; 6HR PCP: TRACE;

DIXON            N/A     33  27  79 N7        29.82F WCI  26
RAWLINS        CLOUDY    30  25  81 MISG      29.81F
6HR MIN TEMP:  30; 6HR MAX TEMP:  31; 6HR PCP: TRACE;

SARATOGA       CLOUDY    30  28  93 CALM      29.82F
LARAMIE        LGT SNOW  28  25  88 N15       29.79S FOG     WCI  16
6HR MIN TEMP:  29; 6HR MAX TEMP:  34; 6HR PCP: TRACE;

CHEYENNE       CLOUDY    39  19  44 N12G20    29.79S WCI  32
6HR MIN TEMP:  39; 6HR MAX TEMP:  45; 6HR PCP: TRACE;

TORRINGTON     CLOUDY    49  13  23 NW12      29.79R
6HR MIN TEMP:  49; 6HR MAX TEMP:  54;

PINE BLUFFS    FAIR      41  18  38 N15G26    29.80R

$$




USA.gov is the U.S. government's official web portal to all federal, state and local government web resources and services.